Regional Weather Roundup
Issued by NWS

Home | Current Version | Previous Version | Text Only | Print | Product List | Glossary On
Versions: 1 2 3 4 5 6 7 8 9 10 11 12 13 14 15 16 17 18 19 20 21 22 23 24 25 26 27 28 29 30 31 32 33 34 35 36 37 38 39 40 41 42 43 44 45 46 47 48 49 50
000
ASUS44 KMEG 290310
RWRTN
TENNESSEE HOURLY STATE WEATHER ROUNDUP
NATIONAL WEATHER SERVICE MEMPHIS TN
1000 PM CDT SAT MAR 28 2015

TNZ002-004-019-021-049-052-054-088>092-290400-
WEST TENNESSEE

CITY           SKY/WX    TMP DP  RH WIND       PRES   REMARKS
MEMPHIS INTL   CLOUDY    42  27  55 CALM      30.32R
NWS MEMPHIS      N/A     39 N/A N/A MISG        N/A
JACKSON        CLEAR     30  24  78 CALM      30.32R
DYERSBURG      CLEAR     36  18  48 CALM      30.34R
UNION CITY     CLEAR     37  19  48 E3        30.31R
PARIS          CLEAR     30  16  55 CALM      30.32R
LEXINGTON      CLEAR     34  18  51 SW5       30.30R WCI  30
SAVANNAH       CLEAR     28  25  86 CALM      30.32R
$$

TNZ008-025-027-028-033-062-065-066-290400-
NORTH MIDDLE TENNESSEE

CITY           SKY/WX    TMP DP  RH WIND       PRES   REMARKS
NASHVILLE      CLEAR     37  16  42 NE3       30.33R
CLARKSVILLE    CLEAR     35  14  42 NE3       30.33R
SMYRNA         CLEAR     32  20  61 CALM      30.34R
COOKEVILLE     CLEAR     27  21  80 CALM      30.30R
CROSSVILLE     CLEAR     32  11  41 N5        30.27R WCI  27
$$

TNZ061-075-076-078-094-096-097-290400-
SOUTH MIDDLE TENNESSEE

CITY           SKY/WX    TMP DP  RH WIND       PRES   REMARKS
FAYETTEVILLE   CLEAR     34  12  40 NE5       30.29R WCI  30
TULLAHOMA      CLEAR     30  18  59 CALM      30.30R
WINCHESTER     CLEAR     30  23  74 CALM      30.30R
MCMINNVILLE    CLEAR     30  18  59 N3        30.29R
COLUMBIA       CLEAR     32  25  74 CALM      30.30R
SHELBYVILLE    CLEAR     30  25  80 NE3       30.32R
$$

TNZ017-018-042-046-047-290400-
NORTHEAST TENNESSEE

CITY           SKY/WX    TMP DP  RH WIND       PRES   REMARKS
TRI CITIES     CLEAR     31   9  39 N3        30.27R
ELIZABETHTON   CLEAR     30   7  37 N3        30.25R
$$

TNZ012-013-036-069-073-074-290400-
CENTRAL EAST TENNESSEE

CITY           SKY/WX    TMP DP  RH WIND       PRES   REMARKS
KNOXVILLE      CLEAR     37  12  35 N7        30.29R WCI  32
OAK RIDGE      CLEAR     37  13  37 CALM      30.31R
GATLINBURG     CLEAR     30  16  55 CALM      30.29R
MORRISTOWN     CLEAR     36  12  38 N7        30.28R WCI  30
$$

TNZ083-085-099-290400-
SOUTHEAST TENNESSEE

CITY           SKY/WX    TMP DP  RH WIND       PRES   REMARKS
CHATTANOOGA    CLEAR     39  15  37 N5        30.29R
$$

SKY/WX REPORTED AS FAIR MEANS FEW OR NO CLOUDS BELOW
12 THOUSAND FEET.




USA.gov is the U.S. government's official web portal to all federal, state and local government web resources and services.